Powrót do katalogu

COSMOS 1617

AktywnyMilitariaPO
NORAD 15469·PAYLOAD·🇷🇺 Russia

Wystrzelony Jan 15, 1985 z Plesetsk Cosmodrome

Loading…

Następne Przeloty (najbliższe 24 godziny)

TLE

ŚwieżeSource: Space-Track

Epoka: Sep 14, 2026, 16:55 UTC

1 15469U 85003A   26257.70529091  .00000014  00000-0  17666-4 0  9991
2 15469  82.6097  59.0665 0001942  97.7986 274.2237 12.62556076919738

Śledź COSMOS 1617 w czasie rzeczywistym z AllMySat

Download on the App Store